Location: Betra
(48.4113°N, 8.6634°E)
Time: 19:39:01
(UTC+00:00)

RESURS DK-1 - Pass Details

Date: 23 May 2024
Orbit: 541 x 547 km, 69.9° (Epoch: 16 June)

Event Time Altitude Azimuth Distance (km) Brightness Sun altitude
Rises 02:03:50 0° 330° (NNW) 2,721 6.2 -12.1°
Reaches altitude 10° 02:06:01 10° 330° (NNW) 1,825 5.2 -11.8°
Maximum altitude 02:10:06 87° 243° (WSW) 554 2.3 -11.4°
Drops below altitude 10° 02:14:10 10° 153° (SSE) 1,815 4.7 -11.0°
Sets 02:16:20 0° 153° (SSE) 2,704 5.6 -10.7°
